Weather History for KZZV - April, 2013

Change the Weather History Date:

Sunday, April 28, 2013

  Actual Average Record
Temperature  
Mean Temperature 58 °F 56 °F  
Max Temperature 62 °F 67 °F 88 °F (1986)
Min Temperature 53 °F 44 °F 25 °F (1947)
Degree Days  
Heating Degree Days 7 10  
Month to date heating degree days 380 393  
Since 1 July heating degree days 5397 5337  
Cooling Degree Days 0 0  
Month to date cooling degree days 17 0  
Year to date cooling degree days 17 1  
Growing Degree Days 7 (Base 50)    
Moisture  
Dew Point 51 °F    
Average Humidity 74    
Maximum Humidity 93    
Minimum Humidity 55    
Precipitation  
Precipitation 0.90 in 0.11 in 0.90 in (2002)
Month to date precipitation 2.47 3.22  
Year to date precipitation 9.13 11.05  
Sea Level Pressure  
Sea Level Pressure 29.97 in    
Wind  
Wind Speed 7 mph (SSE)    
Max Wind Speed 15 mph    
Max Gust Speed 22 mph    
Visibility 7 miles    
Events Rain    
T = Trace of Precipitation, MM = Missing Value Source: NWS Daily Summary

Daily Weather History Graph

Daily Weather History Graph

Search for Another Location

Airport or City:

Trip Planner

Search our weather history database for the weather conditions in past years. The results will help you decide how hot, cold, wet, or windy it might be!

Date:

Astronomy

Apr. 28, 2013 Rise Set
Actual Time 6:31 AM EDT 8:19 PM EDT
Civil Twilight 6:02 AM EDT 8:48 PM EDT
Nautical Twilight 5:26 AM EDT 9:23 PM EDT
Astronomical Twilight 4:49 AM EDT 10:01 PM EDT
Moon 11:48 PM EDT (4/28) 8:46 AM EDT (4/28)
Length of Visible Light 14h 46m
Length of Day
13h 48m
Waning Gibbous, 89% of the Moon is Illuminated
Apr 28
Waning Gibbous
May 2
Last Quarter
May 9
New
May 18
First Quarter
May 25
Full

Hourly Weather History & Observations

Time (EDT) Temp. Dew Point Humidity Pressure Visibility Wind Dir Wind Speed Gust Speed Precip Events Conditions
12:53 AM 55.9 °F 39.9 °F 55% 30.12 in 10.0 mi SSE 3.5 mph - N/A   Clear
1:53 AM 55.9 °F 42.1 °F 60% 30.09 in 10.0 mi SE 4.6 mph - N/A   Clear
2:53 AM 55.0 °F 44.1 °F 67% 30.06 in 10.0 mi ESE 6.9 mph - N/A   Overcast
3:53 AM 55.0 °F 44.1 °F 67% 30.04 in 10.0 mi SE 6.9 mph - N/A   Partly Cloudy
4:53 AM 55.0 °F 45.0 °F 69% 30.03 in 10.0 mi ESE 5.8 mph - N/A   Scattered Clouds
5:53 AM 55.9 °F 45.0 °F 67% 30.00 in 10.0 mi SE 8.1 mph - N/A   Overcast
6:19 AM 55.4 °F 46.4 °F 72% 30.01 in 10.0 mi SE 9.2 mph - 0.00 in Rain Light Rain
6:53 AM 54.0 °F 48.0 °F 80% 30.01 in 6.0 mi SE 6.9 mph - 0.03 in Rain Light Rain
7:53 AM 53.1 °F 50.0 °F 89% 30.01 in 3.0 mi SE 10.4 mph - 0.10 in Rain Rain
8:51 AM 53.6 °F 51.8 °F 94% 30.02 in 5.0 mi SE 8.1 mph - 0.07 in Rain Light Rain
9:23 AM 53.6 °F 51.8 °F 94% 30.01 in 4.0 mi SE 8.1 mph - 0.01 in Rain Light Rain
9:53 AM 54.0 °F 52.0 °F 93% 29.99 in 4.0 mi SE 9.2 mph - 0.02 in Rain Light Rain
10:53 AM 55.0 °F 52.0 °F 89% 30.00 in 3.0 mi South 12.7 mph - 0.03 in Rain Light Rain
11:01 AM 55.4 °F 53.6 °F 94% 30.00 in 2.5 mi SSE 12.7 mph - 0.02 in Rain Light Rain
11:03 AM 55.4 °F 53.6 °F 94% 30.00 in 2.5 mi SSE 11.5 mph - 0.02 in Rain Light Rain
11:10 AM 55.4 °F 53.6 °F 94% 30.00 in 4.0 mi SSE 13.8 mph - 0.02 in Rain Light Rain
11:32 AM 55.4 °F 51.8 °F 88% 30.00 in 10.0 mi SSE 13.8 mph - 0.02 in   Overcast
11:53 AM 55.0 °F 52.0 °F 89% 29.99 in 10.0 mi SSE 10.4 mph - 0.02 in   Overcast
12:30 PM 57.2 °F 53.6 °F 88% 29.98 in 10.0 mi SE 10.4 mph - N/A   Overcast
12:53 PM 57.9 °F 54.0 °F 87% 29.97 in 10.0 mi South 9.2 mph - N/A   Overcast
1:53 PM 59.0 °F 53.1 °F 81% 29.95 in 10.0 mi SSE 8.1 mph - N/A   Overcast
2:19 PM 60.8 °F 53.6 °F 77% 29.94 in 10.0 mi SSE 9.2 mph 18.4 mph 0.01 in   Overcast
2:53 PM 60.1 °F 55.0 °F 83% 29.93 in 9.0 mi SE 8.1 mph - 0.06 in Rain Light Rain
3:53 PM 61.0 °F 54.0 °F 78% 29.92 in 10.0 mi South 10.4 mph - 0.00 in   Overcast
4:53 PM 60.1 °F 54.0 °F 80% 29.90 in 6.0 mi SE 6.9 mph - 0.02 in Rain Light Rain
5:53 PM 60.1 °F 55.9 °F 86% 29.89 in 10.0 mi SE 5.8 mph - 0.00 in   Overcast
6:53 PM 60.1 °F 55.0 °F 83% 29.88 in 10.0 mi SE 6.9 mph - N/A   Mostly Cloudy
7:53 PM 60.1 °F 54.0 °F 80% 29.88 in 10.0 mi SE 5.8 mph - N/A   Overcast
8:53 PM 59.0 °F 54.0 °F 83% 29.89 in 10.0 mi Calm Calm - 0.01 in Rain Light Rain
9:38 PM 57.2 °F 55.4 °F 94% 29.91 in 2.5 mi Calm Calm - 0.06 in Rain Rain
9:53 PM 57.9 °F 54.0 °F 87% 29.91 in 3.0 mi SSE 5.8 mph - 0.12 in Rain Rain
10:33 PM 57.2 °F 55.4 °F 94% 29.92 in 2.0 mi South 5.8 mph - 0.19 in Rain Heavy Rain
10:44 PM 57.2 °F 55.4 °F 94% 29.93 in 4.0 mi South 6.9 mph - 0.23 in Rain Rain
10:53 PM 57.0 °F 55.0 °F 93% 29.93 in 4.0 mi South 5.8 mph - 0.26 in Rain Rain
11:53 PM 57.0 °F 54.0 °F 89% 29.91 in 8.0 mi South 9.2 mph - 0.11 in Rain Light Rain